Location: Bh?mavarapp?du
(16.7041°N, 80.6518°E)
Time: 01:27:51
(UTC+00:00)

ERS-2 - Pass Details

Date: 21 April 2021
Orbit: 491 x 497 km, 98.6° (Epoch: 07 May)

Event Time Altitude Azimuth Distance (km) Brightness Sun altitude
Rises 13:29:21 0° 16° (NNE) 2,562 5.7 -9.0°
Reaches altitude 10° 13:31:26 10° 20° (NNE) 1,679 4.8 -9.4°
Maximum altitude 13:35:00 64° 102° (ESE) 546 2.0 -10.3°
Drops below altitude 10° 13:38:34 10° 184° (S) 1,674 4.7 -11.1°
Sets 13:40:38 0° 187° (S) 2,554 5.6 -11.6°
